Temperature
19 19 19 19 19 19 19 19 19 19 19 19 19 19 19 19 19 19 19 19 19 19 19 19 19 18 18 18 18 18 18 18 18 18 18 18 18 18 18 18 18 18 18
20 19 19 19 19 19 19 19 19 19 19 19 19 19 19 19 19 19 19 19 19 19 19 19 19 18 18 18 18 18 18 18 18 18 18 18 18 18 18 18 18 18 18
20 20 19 19 19 19 19 19 19 19 19 19 19 19 19 19 19 19 19 19 19 19 19 19 19 19 18 18 18 18 18 18 18 18 18 18 18 18 18 18 18 17 18
20 20 20 19 19 19 19 19 19 19 19 19 19 19 19 19 19 19 19 19 19 19 19 19 19 19 19 18 18 18 18 18 18 18 18 18 18 18 18 18 18 17 18
20 20 20 20 19 19 19 19 19 19 19 19 19 19 19 19 19 19 19 19 19 19 19 19 19 19 19 18 18 18 18 18 18 18 18 18 18 18 18 17 17 17 17
20 20 20 20 19 19 19 19 19 19 19 19 19 19 19 19 19 19 19 19 19 19 19 19 19 19 18 18 18 18 18 18 18 18 18 18 18 18 18 18 17 17 17
20 20 20 20 20 19 19 19 19 19 19 19 19 19 19 19 19 19 19 19 19 19 19 19 19 18 18 18 18 18 18 18 18 18 18 18 18 18 18 18 18 17 17
20 20 20 20 20 20 19 19 19 19 19 19 19 19 19 19 19 19 19 19 19 19 19 19 19 18 18 18 18 18 18 18 18 18 18 18 18 18 18 18 18 17 17
20 20 20 20 20 20 20 19 19 19 19 19 19 19 19 19 19 19 19 19 19 19 19 19 19 19 18 18 18 18 18 18 18 18 18 18 18 18 18 18 18 17 17
20 20 20 20 20 20 19 19 19 19 19 19 19 19 19 19 19 19 19 19 19 19 19 19 19 19 19 19 18 18 18 18 18 18 18 18 18 18 18 18 18 18 17
20 20 20 20 20 20 19 19 19 19 19 19 19 19 19 19 19 19 19 19 19 19 19 19 19 19 19 19 19 18 18 18 18 18 18 18 18 18 18 18 18 18 17
20 20 20 20 20 20 19 19 19 19 19 19 19 19 19 19 19 19 19 19 19 19 19 19 19 19 19 19 19 18 18 18 18 19 18 18 18 18 18 18 18 18 18
20 20 20 20 20 20 20 19 19 19 19 19 19 19 19 19 19 19 19 19 19 19 19 19 19 19 19 19 19 19 19 19 19 19 19 18 18 18 18 18 18 18 18
20 20 20 20 20 20 20 19 19 19 19 19 19 19 19 19 19 19 19 19 19 19 19 19 19 19 19 19 19 19 19 19 19 19 19 18 18 18 18 18 18 18 18
20 20 20 20 20 20 20 19 19 19 19 19 19 19 19 19 19 19 19 19 19 19 19 19 19 19 19 19 19 19 19 19 19 19 18 18 18 18 18 18 18 18 18
21 21 20 20 20 20 20 20 20 19 19 19 19 19 19 19 19 19 19 19 19 19 19 19 19 19 19 19 19 19 19 19 19 19 18 18 18 18 18 18 18 18 18
21 21 20 20 20 20 20 20 20 19 19 19 19 19 19 19 19 19 19 19 19 19 19 19 19 19 19 19 19 19 19 19 19 19 19 18 18 18 18 18 18 18 18
21 21 20 20 20 20 20 20 19 19 19 19 19 19 19 19 19 19 19 19 19 19 19 19 19 19 19 19 19 19 19 19 19 19 19 18 18 18 18 18 18 18 18
21 21 21 20 20 20 20 20 19 20 19 19 19 19 19 19 19 19 19 19 19 19 19 19 19 19 19 19 19 19 19 19 19 19 19 19 18 18 18 18 18 18 18
22 21 21 20 20 20 20 20 20 20 20 19 19 19 19 19 19 19 19 19 19 19 19 19 19 19 19 19 19 19 19 19 19 19 19 19 18 18 18 18 18 18 18
22 21 21 21 20 20 20 20 20 20 20 19 19 19 19 19 19 19 19 19 19 19 19 19 19 19 19 19 19 19 19 19 19 19 19 19 18 18 18 18 18 18 18
22 22 21 21 21 21 20 20 20 20 20 20 19 19 19 19 19 19 19 19 19 19 19 19 19 19 19 19 19 19 18 18 19 19 19 19 18 18 18 18 18 18 18
22 22 21 21 21 21 21 20 20 20 20 19 19 19 19 19 19 19 19 19 19 19 19 19 19 19 19 19 19 19 18 18 18 19 19 19 18 18 18 18 18 18 18
23 22 22 22 21 21 21 20 20 20 20 20 19 19 19 19 19 19 19 19 19 19 19 19 19 19 19 19 19 19 19 18 18 18 18 18 18 18 18 18 18 18 18
23 22 22 22 21 21 20 20 20 20 20 19 19 19 19 19 19 19 19 19 19 19 19 19 19 19 19 19 19 19 19 18 18 18 18 18 18 18 18 18 18 18 18
22 22 22 22 21 21 20 20 20 20 20 19 19 19 19 19 19 19 19 19 19 19 19 19 19 19 18 18 18 18 18 18 18 18 18 18 18 18 18 18 18 18 18
Wind_Speed
3 5 10 11 12 12 13 12 12 13 14 14 15 16 16 15 15 15 15 14 14 13 13 12 12 12 12 12 12 12 11 10 10 9 9 9 9 9 9 8 8 8 9
7 8 11 11 12 12 13 13 12 13 14 14 15 15 15 15 15 14 14 13 13 12 12 11 11 11 11 11 11 10 10 9 9 8 8 8 8 8 9 9 8 8 9
8 8 10 11 12 12 13 13 13 13 13 13 14 14 14 14 14 13 13 12 12 11 11 11 11 10 10 10 9 8 8 8 8 7 7 6 7 8 9 9 9 9 9
8 8 10 12 13 13 14 13 13 13 13 13 14 13 13 13 12 12 12 11 11 11 10 10 10 10 9 8 8 7 7 7 6 6 5 5 6 8 9 10 9 9 9
8 9 11 14 14 14 14 13 13 13 13 13 13 13 12 12 11 11 10 10 10 10 10 9 9 8 8 8 7 6 6 6 5 5 5 5 6 9 10 10 9 9 9
7 9 12 14 14 14 14 13 13 13 13 13 13 12 11 11 11 10 9 9 9 9 9 8 8 7 6 6 6 5 5 5 5 5 6 6 7 9 10 10 9 9 8
7 8 12 14 14 14 13 13 13 13 13 13 12 11 11 10 9 9 9 9 8 8 8 7 7 6 6 5 5 5 4 5 4 5 6 7 8 9 9 9 9 9 8
9 8 11 14 14 14 13 13 13 13 13 12 12 11 10 9 9 8 9 8 7 7 7 6 6 5 6 5 5 4 4 5 5 6 7 8 9 9 9 9 10 9 8
9 8 7 10 12 13 12 12 12 12 11 11 11 10 9 9 8 8 7 7 6 6 6 5 5 4 5 5 5 5 6 6 5 6 8 8 10 10 9 9 9 9 9
7 7 6 7 8 9 10 11 10 10 10 10 9 9 8 8 8 7 7 6 6 6 5 5 4 4 5 5 6 6 7 6 5 6 7 9 11 11 10 9 10 9 9
8 6 6 6 6 7 8 9 9 9 8 8 8 8 7 6 6 6 6 6 6 6 5 5 5 5 5 5 5 5 6 4 5 5 7 10 12 11 10 10 9 9 9
8 7 6 6 6 7 7 7 7 6 6 6 5 6 6 5 5 5 6 7 6 6 5 5 5 5 4 3 4 3 3 5 5 6 8 12 12 12 11 10 10 10 9
9 8 7 6 6 6 4 6 5 4 4 5 5 6 5 4 4 4 4 4 5 5 4 4 3 3 3 3 2 2 4 5 6 6 9 12 12 12 11 11 10 10 9
9 8 7 7 5 5 5 4 4 3 3 3 4 6 5 3 2 2 2 3 3 3 3 3 2 3 4 4 4 3 4 5 6 6 9 12 12 12 12 11 11 11 10
8 8 8 8 6 5 4 3 4 3 3 4 5 6 6 3 2 2 2 2 3 4 3 2 2 2 2 3 3 3 3 5 6 7 8 12 12 11 11 11 11 11 10
9 9 8 8 7 5 5 4 3 3 4 4 4 6 7 5 3 2 2 1 2 4 4 3 2 2 2 2 2 2 3 5 6 7 8 9 11 11 11 11 11 10 10
9 8 7 7 6 6 5 4 3 3 4 3 4 6 7 6 5 3 2 2 2 4 3 2 2 1 1 1 1 1 2 4 5 6 7 7 8 9 10 10 11 11 10
8 7 7 7 7 5 4 3 2 3 3 3 4 4 5 6 5 3 2 2 2 2 1 1 0 0 1 1 1 1 1 2 4 5 6 6 6 7 8 9 10 10 11
9 8 7 6 6 5 4 3 2 2 2 3 4 4 4 4 4 3 2 2 1 1 1 1 1 1 0 1 1 1 1 2 3 4 4 5 7 7 6 8 10 10 10
9 8 7 6 6 5 3 2 1 1 1 1 2 3 3 3 4 3 2 1 1 1 1 0 1 1 1 1 1 1 1 1 1 2 3 4 5 7 7 7 7 8 10
8 7 7 6 6 5 3 2 2 1 1 1 1 3 3 3 3 2 1 1 2 2 1 1 1 1 0 1 2 3 3 2 1 1 1 2 3 5 6 6 6 6 6
9 8 8 7 6 5 4 3 2 2 1 1 1 1 2 3 3 3 2 2 1 1 0 0 1 1 0 1 2 1 2 4 3 1 1 2 2 2 3 5 6 6 7
9 9 9 8 7 6 5 2 2 2 2 1 0 1 1 2 3 3 3 2 2 2 1 1 1 2 1 1 1 3 2 2 2 2 1 1 1 1 2 3 5 7 7
11 10 9 8 7 6 5 4 4 3 2 2 2 1 1 1 2 2 3 3 2 2 1 1 1 2 2 0 1 0 2 3 2 1 2 2 1 1 2 2 3 5 7
10 9 9 7 6 5 4 5 4 3 2 2 1 1 1 1 1 2 2 2 2 2 2 1 1 1 2 2 1 0 0 1 2 2 2 3 2 2 1 2 2 3 5
7 7 8 7 6 5 5 5 5 5 4 3 2 2 1 1 1 1 2 2 2 2 2 2 2 1 1 1 1 1 2 1 2 2 2 2 2 2 1 1 1 2 4
Wind_Direction
141 143 135 128 125 127 125 123 123 125 124 121 119 119 119 118 119 120 123 124 126 126 124 123 122 123 124 126 126 128 131 133 135 135 135 134 138 142 139 129 124 121 132
148 145 138 132 129 130 129 126 124 126 126 123 122 123 123 124 125 124 126 128 128 128 127 127 126 124 123 125 127 129 133 135 137 138 141 140 143 147 147 139 135 132 130
135 136 136 136 135 133 130 128 126 125 126 124 123 125 126 126 128 129 129 129 129 129 130 130 128 127 127 129 131 134 139 141 142 144 145 145 146 146 147 145 144 142 140
133 131 132 133 135 134 132 132 130 128 129 127 126 126 126 128 131 132 132 133 132 133 134 134 135 134 135 136 138 142 150 154 153 155 154 156 150 145 142 145 146 147 148
126 129 132 130 132 133 133 133 133 132 133 131 130 129 129 131 133 136 138 138 138 138 140 140 141 143 144 146 147 149 154 164 165 162 157 156 151 151 148 149 151 152 151
127 131 133 130 131 132 133 133 134 134 135 135 133 133 134 135 138 139 143 142 143 143 145 147 152 156 157 161 163 163 164 167 162 151 151 155 156 159 159 159 159 162 159
130 131 134 133 132 133 134 135 136 137 138 138 137 137 138 140 141 144 148 148 150 151 151 155 163 171 176 181 183 182 175 172 158 153 157 163 163 162 165 166 164 166 163
136 135 134 137 137 138 138 138 138 138 138 139 139 140 142 145 148 149 151 153 158 162 161 164 172 180 189 197 201 200 189 174 157 155 163 171 169 167 168 169 170 172 171
133 133 131 138 142 142 143 142 143 143 144 143 144 146 148 153 158 160 162 165 167 168 169 175 184 194 203 213 218 218 201 186 164 160 172 173 176 173 173 175 175 177 178
133 134 135 138 143 146 149 150 150 149 152 151 152 154 155 157 162 167 172 179 178 181 188 199 210 219 227 231 233 220 200 194 173 175 174 179 183 182 182 181 181 181 183
141 146 148 147 149 151 156 160 158 158 161 160 163 166 164 164 171 177 184 187 191 198 208 220 232 237 243 248 246 222 207 190 175 177 181 184 186 186 185 185 186 187 189
155 159 158 158 164 166 167 164 166 169 168 172 177 174 175 180 192 197 202 205 207 210 222 238 246 250 257 258 251 221 186 185 182 182 185 186 190 190 189 189 189 191 192
165 163 162 164 166 169 165 159 169 178 173 179 185 179 179 182 196 205 198 215 220 221 232 250 252 256 261 257 254 199 181 180 182 188 188 185 189 193 193 190 191 193 194
156 161 164 164 165 167 160 159 168 179 172 176 182 176 167 158 170 187 196 208 210 215 222 232 243 257 258 254 252 229 195 179 183 185 190 190 192 196 195 194 196 198 198
154 161 164 160 164 161 153 164 166 182 179 184 184 183 173 167 179 191 211 207 211 210 215 232 243 260 269 267 255 217 184 173 177 181 191 193 194 196 198 199 201 201 202
157 162 164 164 166 156 158 171 171 172 181 185 190 193 190 183 183 183 200 217 218 218 217 221 238 246 260 268 253 204 174 164 176 182 184 192 196 198 203 206 207 205 202
161 161 164 166 163 159 162 169 161 161 174 184 198 196 193 181 180 176 180 202 225 221 216 218 245 256 272 273 274 217 178 168 176 181 186 191 199 205 209 211 211 208 205
156 158 168 165 159 157 157 157 152 167 168 183 189 192 190 183 182 174 169 207 216 199 184 178 182 220 306 313 286 249 207 172 175 179 182 187 193 203 211 213 211 210 210
162 161 167 157 155 156 157 157 159 162 172 181 183 191 195 180 172 167 177 214 212 158 155 213 148 163 207 293 275 265 230 190 186 186 186 193 195 199 202 209 212 211 211
163 159 159 152 155 152 138 123 116 99 150 167 184 197 192 177 162 152 154 178 147 124 104 125 139 134 194 225 310 0 316 241 201 193 199 197 199 199 195 202 209 215 217
160 154 156 156 162 150 143 149 144 184 224 229 215 196 184 174 162 145 143 139 139 143 174 164 138 119 358 71 53 11 359 356 314 230 203 195 204 203 192 198 202 204 213
167 166 163 165 167 167 171 169 167 172 197 199 228 202 182 168 166 157 153 157 151 142 131 139 117 116 10 86 111 82 5 351 344 304 238 195 211 188 180 197 201 201 206
171 175 175 174 173 178 171 137 112 74 43 38 0 236 202 167 161 150 153 154 144 144 176 203 160 145 170 274 138 143 146 231 307 322 301 271 212 193 199 184 198 207 206
181 179 176 177 174 175 160 152 154 160 183 207 195 202 234 173 162 153 153 156 162 152 157 203 155 160 146 211 299 184 173 170 176 294 321 312 279 221 219 203 197 203 205
182 180 180 176 175 172 161 165 164 167 190 189 166 178 231 258 189 164 156 157 162 165 173 175 135 144 155 170 190 206 96 97 146 169 265 305 315 287 243 214 199 194 202
178 177 174 169 177 179 174 170 171 179 185 172 177 195 228 248 257 229 170 176 176 177 184 192 186 164 179 172 180 168 169 177 190 171 213 249 272 280 256 233 192 199 197
Height
1510 1509 1508 1508 1508 1508 1509 1510 1510 1511 1512 1513 1514 1515 1516 1518 1519 1520 1521 1522 1523 1523 1524 1524 1525 1525 1526 1527 1528 1529 1530 1531 1532 1533 1534 1535 1536 1536 1537 1537 1538 1538 1538
1509 1509 1509 1508 1509 1509 1510 1511 1511 1511 1513 1514 1515 1516 1517 1519 1520 1521 1522 1523 1524 1524 1524 1525 1525 1526 1527 1528 1529 1530 1531 1532 1533 1534 1534 1535 1536 1537 1537 1538 1538 1538 1539
1510 1509 1509 1509 1509 1510 1511 1512 1512 1513 1514 1515 1516 1517 1519 1520 1521 1522 1523 1523 1524 1525 1525 1526 1526 1527 1528 1529 1530 1530 1531 1532 1533 1534 1535 1535 1536 1537 1537 1537 1538 1538 1539
1511 1510 1510 1509 1509 1511 1512 1513 1514 1515 1516 1517 1518 1519 1520 1521 1522 1523 1524 1524 1525 1526 1526 1526 1527 1528 1529 1529 1530 1531 1532 1533 1534 1534 1535 1535 1536 1537 1537 1537 1538 1539 1539
1511 1511 1511 1511 1511 1512 1513 1514 1515 1516 1517 1518 1519 1520 1521 1522 1523 1524 1525 1525 1526 1526 1527 1527 1528 1529 1529 1530 1531 1531 1532 1533 1534 1534 1535 1536 1536 1536 1537 1537 1538 1538 1539
1512 1513 1513 1513 1513 1514 1515 1516 1517 1518 1519 1520 1521 1522 1523 1523 1524 1524 1525 1526 1526 1527 1527 1528 1528 1529 1530 1531 1531 1532 1532 1533 1534 1534 1535 1535 1536 1536 1537 1537 1538 1538 1539
1514 1514 1515 1515 1516 1516 1517 1518 1519 1520 1521 1522 1523 1523 1524 1524 1525 1525 1525 1526 1527 1527 1528 1528 1529 1530 1530 1531 1531 1532 1532 1533 1534 1534 1535 1535 1536 1536 1536 1537 1537 1538 1538
1515 1516 1516 1517 1518 1518 1519 1520 1521 1521 1522 1523 1524 1525 1525 1526 1526 1526 1526 1527 1527 1528 1528 1529 1529 1529 1530 1530 1531 1531 1532 1533 1533 1534 1534 1535 1536 1536 1536 1536 1537 1537 1538
1517 1518 1518 1519 1520 1520 1521 1522 1522 1523 1524 1525 1525 1526 1526 1527 1527 1528 1528 1528 1528 1529 1529 1529 1529 1529 1529 1529 1530 1530 1531 1532 1533 1534 1534 1535 1535 1536 1536 1536 1537 1537 1537
1519 1520 1520 1521 1521 1522 1523 1524 1524 1525 1526 1526 1527 1527 1528 1528 1528 1529 1529 1529 1529 1529 1529 1529 1529 1529 1528 1528 1528 1529 1531 1532 1533 1533 1534 1534 1535 1535 1535 1536 1536 1536 1536
1520 1521 1522 1522 1523 1523 1524 1525 1526 1526 1527 1527 1528 1528 1529 1529 1529 1530 1530 1530 1530 1530 1530 1530 1529 1529 1528 1528 1527 1528 1530 1531 1532 1533 1533 1534 1534 1534 1535 1535 1535 1535 1535
1521 1522 1523 1523 1524 1525 1525 1526 1527 1527 1528 1529 1529 1529 1530 1530 1530 1531 1531 1531 1531 1531 1531 1531 1530 1529 1529 1528 1527 1528 1529 1531 1532 1532 1533 1533 1533 1534 1534 1534 1534 1534 1534
1521 1522 1523 1524 1525 1525 1526 1527 1527 1528 1529 1529 1530 1530 1531 1531 1531 1531 1532 1532 1532 1532 1532 1531 1531 1530 1530 1529 1529 1529 1530 1531 1532 1532 1532 1533 1533 1533 1533 1533 1533 1533 1533
1521 1523 1524 1525 1526 1526 1527 1527 1528 1528 1529 1530 1530 1531 1531 1531 1532 1532 1532 1533 1533 1532 1532 1532 1531 1531 1530 1530 1530 1530 1530 1531 1532 1532 1532 1532 1532 1532 1532 1533 1532 1532 1532
1522 1523 1524 1525 1526 1527 1527 1528 1529 1529 1530 1531 1531 1531 1532 1532 1532 1532 1533 1533 1533 1533 1532 1532 1532 1531 1531 1530 1530 1531 1531 1531 1532 1532 1532 1532 1532 1532 1532 1532 1532 1532 1532
1522 1523 1524 1525 1526 1527 1528 1528 1529 1530 1530 1531 1531 1531 1532 1532 1532 1532 1533 1533 1533 1533 1533 1533 1532 1532 1531 1531 1531 1531 1531 1531 1531 1532 1532 1531 1531 1531 1531 1531 1531 1531 1531
1522 1523 1524 1525 1526 1527 1528 1529 1529 1530 1530 1531 1531 1531 1532 1532 1532 1532 1533 1533 1533 1533 1533 1532 1532 1532 1532 1531 1531 1531 1531 1531 1531 1532 1531 1531 1531 1531 1530 1530 1530 1530 1530
1521 1523 1524 1525 1526 1527 1528 1528 1529 1530 1530 1530 1531 1531 1532 1532 1532 1532 1532 1532 1532 1532 1532 1532 1532 1532 1532 1531 1531 1531 1531 1531 1531 1531 1531 1530 1530 1530 1530 1530 1529 1529 1529
1521 1522 1523 1525 1526 1527 1528 1528 1529 1530 1530 1530 1531 1531 1531 1532 1532 1532 1532 1532 1532 1532 1532 1532 1532 1532 1531 1531 1531 1531 1530 1530 1531 1530 1530 1530 1530 1529 1529 1529 1529 1528 1528
1520 1521 1523 1524 1525 1526 1527 1528 1529 1529 1529 1530 1530 1531 1531 1531 1531 1531 1531 1531 1531 1531 1531 1531 1531 1531 1531 1530 1530 1530 1530 1530 1530 1530 1529 1529 1529 1529 1528 1528 1528 1528 1527
1520 1521 1522 1523 1524 1525 1526 1527 1527 1528 1529 1529 1529 1530 1530 1530 1531 1530 1530 1530 1530 1530 1530 1530 1530 1530 1530 1530 1529 1529 1529 1529 1529 1529 1529 1528 1528 1528 1527 1527 1527 1527 1526
1518 1519 1521 1522 1523 1524 1525 1526 1527 1527 1528 1528 1529 1529 1529 1529 1530 1530 1529 1529 1529 1529 1529 1529 1529 1529 1529 1529 1529 1528 1529 1530 1528 1528 1528 1528 1527 1527 1527 1526 1526 1526 1525
1517 1518 1519 1521 1522 1523 1524 1525 1526 1526 1527 1528 1528 1528 1528 1528 1528 1528 1528 1528 1528 1528 1528 1528 1528 1528 1528 1528 1528 1529 1528 1528 1527 1527 1527 1527 1527 1526 1526 1525 1525 1524 1524
1515 1517 1519 1520 1521 1523 1524 1524 1525 1525 1525 1526 1527 1527 1527 1527 1527 1527 1527 1527 1527 1527 1527 1527 1527 1527 1527 1527 1527 1527 1528 1527 1527 1526 1526 1526 1526 1525 1525 1524 1524 1523 1523
1515 1516 1518 1519 1520 1521 1522 1523 1524 1524 1525 1525 1526 1526 1526 1526 1526 1526 1526 1525 1526 1526 1526 1526 1526 1526 1526 1525 1525 1525 1525 1526 1525 1525 1524 1524 1524 1524 1524 1523 1523 1522 1522
1514 1515 1516 1517 1518 1520 1521 1522 1522 1523 1524 1524 1524 1524 1524 1525 1525 1524 1524 1524 1524 1524 1524 1524 1525 1524 1524 1524 1524 1524 1524 1524 1523 1523 1523 1522 1522 1523 1523 1522 1522 1521 1521